Location: Forli
(44.2227°N, 12.0407°E)
Time: 18:37:50
(UTC+01:00)

ISS - Pass Details

Date: 15 February 2026
Orbit: 416 x 427 km, 51.6° (Epoch: 6 March)

Event Time Altitude Azimuth Distance (km) Brightness Sun altitude
Exits shadow 05:35:03 30° 204° (SSW) 782 -2.6 -17.9°
Maximum altitude 05:36:23 51° 143° (SE) 531 -3.1 -17.6°
Drops below altitude 10° 05:39:39 10° 67° (ENE) 1,493 0.1 -17.1°
Sets 05:41:47 0° 62° (ENE) 2,359 1.1 -16.7°
